Home   Weather   Germantown   Past weeks

Flag for USA Past Weather in Germantown, Maryland, USA — Yesterday and Last 2 Weeks

Now
59 °F

Clear.


Feels Like: 60 °F
Forecast: 62 / 83 °F
Wind: 3 mph from Southwest

Location: Frederick Municipal Airport

Current Time: Apr 28, 2017 at 6:36:24 am

Latest Report: Apr 28, 2017 at 5:55 am


Visibility: 7 mi

Pressure: 29.97 "Hg

Humidity: 100%

Dew Point: 59 °F

Location of GermantownLocation

Past Weather in Germantown — Graph

°F

Germantown Temperature Yesterday

Maximum temperature yesterday: 84 °F (at 4:48 pm)
Minimum temperature yesterday: 52 °F (at 4:35 am)
Average temperature yesterday: 68 °F

High & Low Weather Summary for the Past Weeks

 TemperatureHumidityPressure
High88 °F (Apr 16, 1:47 pm)100% (Apr 14, 2:55 am)30.45 "Hg (Apr 14, 2:55 am)
Low41 °F (Apr 23, 6:15 am)31% (Apr 18, 2:47 pm)29.77 "Hg (Apr 27, 3:47 pm)
Average60 °F84%30.08 "Hg
* Reported Apr 13 5:15 am — Apr 28 5:15 am, Germantown, Weather by CustomWeather, © 2017

Note: Actual official high and low records may vary slightly from our data, if they occured in-between our weather recording intervals... More about our weather records

Advertising

Germantown Weather History for the Previous 24 Hours

Scroll right to see more
 ConditionsComfort  
Time TempWeatherWind HumidityBarometerVisibility
5:15 am
Fri, Apr 28
61 °FClear.No wind100%29.95 "Hg7 mi
4:55 am63 °FClear.No wind100%29.94 "Hg7 mi
4:35 am64 °FClear.7 mph100%29.93 "Hg10 mi
4:15 am64 °FClear.6 mph100%29.93 "Hg10 mi
3:50 am64 °FClear.5 mph100%29.91 "Hg10 mi
2:55 am64 °FClear.5 mph94%29.88 "Hg10 mi
2:10 am64 °FClear.3 mph88%29.87 "Hg10 mi
1:55 am68 °FClear.3 mph83%29.87 "Hg10 mi
1:35 am68 °FClear.5 mph83%29.87 "Hg10 mi
1:15 am70 °FClear.6 mph78%29.86 "Hg10 mi
12:55 am72 °FClear.7 mph73%29.85 "Hg10 mi
12:15 am72 °FClear.10 mph73%29.85 "Hg10 mi
11:55 pm
Thu, Apr 27
72 °FClear.9 mph73%29.83 "Hg10 mi
11:15 pm73 °FClear.12 mph69%29.83 "Hg10 mi
10:55 pm77 °FPassing clouds.15 mph61%29.82 "Hg10 mi
10:35 pm77 °FOvercast.9 mph57%29.82 "Hg10 mi
10:15 pm75 °FOvercast.10 mph65%29.82 "Hg10 mi
9:55 pm77 °FPartly cloudy.8 mph61%29.82 "Hg10 mi
9:35 pm77 °FPassing clouds.10 mph61%29.82 "Hg10 mi
7:48 pm79 °FSunny.7 mph61%29.77 "Hg10 mi
6:47 pm82 °FSunny.8 mph51%29.77 "Hg10 mi
5:48 pm84 °FScattered clouds.12 mph51%29.77 "Hg10 mi
4:48 pm84 °FPartly sunny.13 mph55%29.77 "Hg10 mi
3:47 pm82 °FScattered clouds.12 mph62%29.77 "Hg10 mi
2:47 pm82 °FScattered clouds.8 mph58%29.80 "Hg10 mi
1:47 pm77 °FFog.6 mph69%29.81 "Hg5 mi
12:48 pm72 °FFog.No wind94%29.85 "Hg5 mi
12:14 pm70 °FFog.No wind100%29.87 "Hg5 mi
11:49 am66 °FFog.No wind100%29.89 "Hg4 mi
10:56 am64 °FFog.No wind100%29.89 "Hg3 mi
9:47 am63 °FFog.No wind100%29.89 "Hg2 mi
8:47 am61 °FFog.No wind100%29.88 "Hg1 mi
8:05 am61 °FFog.No wind100%29.87 "Hg2 mi
7:47 am59 °FFog.No wind100%29.87 "Hg2 mi
6:56 am57 °FFog.No wind100%29.86 "Hg5 mi
6:35 am55 °FLow clouds.No wind100%29.86 "Hg7 mi
6:15 am55 °FOvercast.No wind100%29.86 "Hg7 mi
Weather by CustomWeather, © 2017

See weather overviewHow to use our weather pages